Location: Unspecified
(41.5000°N, 0.0000°E)
Time: 09:55:30
(UTC+00:00)

Vanguard 3 - Pass Details

Date: 25 June 2019
Orbit: 507 x 3264 km, 33.4° (Epoch: 18 July)

Event Time Altitude Azimuth Distance (km) Brightness Sun altitude
Rises 10:25:29 0° 237° (WSW) 6,922 11.8 62.8°
Reaches altitude 10° 10:30:48 10° 233° (SW) 5,613 11.5 63.6°
Maximum altitude 10:45:19 46° 167° (SSE) 2,486 11.0 65.7°
Drops below altitude 10° 10:53:58 10° 98° (E) 3,427 10.8 66.9°
Sets 10:56:25 0° 92° (E) 4,105 11.0 67.2°
